Location: Bushrod
(6.3500°N, 10.7833°W)
Time: 12:20:37
(UTC+00:00)

Cosmos 2297 Rocket - Pass Details

Date: 17 September 2019
Orbit: 841 x 842 km, 71.0° (Epoch: 14 October)

Event Time Altitude Azimuth Distance (km) Brightness Sun altitude
Rises 20:58:59 0° 224° (SW) 3,390 5.8 -34.8°
Reaches altitude 10° 21:02:01 10° 240° (WSW) 2,454 5.1 -35.5°
Maximum altitude 21:06:08 21° 287° (WNW) 1,804 4.5 -36.5°
Drops below altitude 10° 21:10:16 10° 335° (NNW) 2,451 4.9 -37.6°
Sets 21:13:19 0° 351° (N) 3,384 5.5 -38.3°
